EW1135 Weather Reports


Display with metric or nautical units.
time (UTC)temp
F
wind
direction
speed
MPH
gust
MPH
rain 1hr
in
rain 24hr
in
rain mn
in
humidity
%
barometer
mb
20260906094559 55 181 1.0 0.0 0.00 0.00 0.00 89 1014.2
20260906093059 54 177 0.0 0.0 0.00 0.00 0.00 88 1014.1
20260906091558 54 153 1.0 0.0 0.00 0.00 0.00 88 1014.1
20260906090045 54 146 0.0 0.0 0.00 0.00 0.00 88 1014.2
20260906084544 55 147 0.0 0.0 0.00 0.00 0.00 88 1014.2
20260906083043 55 146 0.0 0.0 0.00 0.00 0.00 88 1014.1
20260906081543 55 148 0.0 0.0 0.00 0.00 0.00 88 1014.1
20260906080041 55 120 0.0 0.0 0.00 0.00 0.00 88 1014.0
20260906074541 55 120 0.0 0.0 0.00 0.00 0.00 88 1013.9
20260906073040 55 120 1.0 0.0 0.00 0.00 0.00 88 1014.1
20260906071538 55 121 2.0 0.0 0.00 0.00 0.00 88 1014.1
20260906070024 55 133 0.0 0.0 0.00 0.00 0.00 87 1014.2
20260906064533 55 133 1.0 0.0 0.00 0.00 0.00 87 1014.2
20260906063023 55 133 0.0 0.0 0.00 0.00 0.00 87 1014.4
20260906061525 55 133 2.0 0.0 0.00 0.00 0.00 87 1014.3
20260906060021 55 133 0.0 0.0 0.00 0.00 0.00 87 1014.5
20260906054532 56 133 1.0 0.0 0.00 0.00 0.00 87 1014.4
20260906053018 56 133 0.0 0.0 0.00 0.00 0.00 86 1014.5
20260906051517 57 133 3.0 0.0 0.00 0.00 0.00 86 1014.3
20260906050005 57 125 3.0 0.0 0.00 0.00 0.00 86 1014.3
20260906044508 57 135 5.0 0.0 0.00 0.00 0.00 86 1014.3
20260906043018 57 146 3.0 0.0 0.00 0.00 0.00 86 1014.4
20260906041504 57 117 5.0 0.0 0.00 0.00 0.00 86 1014.3
20260906040003 57 108 2.0 0.0 0.00 0.00 0.00 86 1014.4
20260906034503 57 108 2.0 0.0 0.00 0.00 0.00 86 1014.3
20260906033003 57 97 1.0 0.0 0.00 0.00 0.00 86 1014.0
20260906031502 58 56 1.0 0.0 0.00 0.00 0.00 86 1013.9
20260906030050 59 56 2.0 0.0 0.00 0.00 0.00 86 1013.9
20260906024549 60 38 4.0 0.0 0.00 0.00 0.00 86 1014.2
20260906023051 60 35 2.0 0.0 0.00 0.00 0.00 86 1014.4
20260906021549 60 36 3.0 0.0 0.00 0.00 0.00 85 1014.3
20260906020049 60 36 3.0 0.0 0.00 0.00 0.00 86 1014.4
20260906014553 60 19 4.0 0.0 0.00 0.00 0.00 85 1014.5
20260906013047 60 20 4.0 0.0 0.00 0.00 0.00 85 1014.5
20260906011547 60 41 2.0 0.0 0.00 0.00 0.00 85 1014.4
20260906010029 60 38 3.0 0.0 0.00 0.00 0.00 85 1014.7
20260906004529 60 34 3.0 0.0 0.00 0.00 0.00 85 1014.5
20260906003022 60 34 3.0 0.0 0.00 0.00 0.00 85 1014.3
20260906001517 61 35 3.0 0.0 0.00 0.00 0.00 84 1014.3
20260906000022 61 27 4.0 0.0 0.00 0.00 0.00 84 1014.1
20260905234516 61 4 2.0 0.0 0.00 0.00 0.00 84 1014.1
20260905233019 61 2 3.0 0.0 0.00 0.00 0.00 83 1014.4
20260905231515 63 330 0.0 0.0 0.00 0.00 0.00 84 1014.4
20260905230014 63 329 0.0 0.0 0.00 0.00 0.00 84 1014.7
20260905224516 63 327 0.0 0.0 0.00 0.00 0.00 85 1014.7
20260905223056 63 326 1.0 0.0 0.00 0.00 0.00 85 1014.7
20260905221557 63 327 2.0 0.0 0.00 0.00 0.00 86 1015.0
20260905220043 63 325 2.0 0.0 0.00 0.00 0.00 86 1015.2
20260905214542 63 327 2.0 0.0 0.00 0.00 0.00 86 1015.2
20260905213042 62 327 2.0 0.0 0.00 0.00 0.00 87 1015.1
20260905211542 62 327 3.0 0.0 0.00 0.00 0.00 87 1015.2
20260905210041 62 347 3.0 0.0 0.00 0.00 0.00 87 1015.1
20260905204540 63 325 2.0 0.0 0.00 0.00 0.00 88 1015.2
20260905203041 63 279 2.0 0.0 0.00 0.00 0.00 88 1015.2
20260905201539 62 299 4.0 0.0 0.00 0.00 0.00 88 1015.3
20260905200033 63 292 5.0 0.0 0.00 0.00 0.00 89 1015.3
20260905194524 62 296 5.0 0.0 0.00 0.00 0.00 89 1015.4
20260905193025 61 259 8.0 0.0 0.00 0.00 0.00 89 1015.4
20260905191526 61 246 7.0 0.0 0.00 0.00 0.00 90 1015.3
20260905190030 60 241 9.0 0.0 0.00 0.00 0.00 90 1015.4
20260905184525 60 235 8.0 0.0 0.00 0.00 0.00 91 1015.4
20260905183018 60 254 8.0 0.0 0.00 0.00 0.00 91 1015.4
20260905181517 60 251 6.0 0.0 0.00 0.00 0.00 91 1015.3
20260905180002 59 252 7.0 0.0 0.00 0.00 0.00 91 1015.3
20260905174558 58 248 6.0 0.0 0.00 0.00 0.00 91 1015.3
20260905173055 57 254 6.0 0.0 0.00 0.00 0.00 91 1015.2
20260905171555 58 258 6.0 0.0 0.00 0.00 0.00 91 1015.2
20260905170055 57 256 6.0 0.0 0.00 0.00 0.00 91 1015.2
20260905164553 57 246 6.0 0.0 0.00 0.00 0.00 91 1015.2
20260905163050 57 258 9.0 0.0 0.00 0.00 0.00 91 1015.3
20260905161546 58 275 6.0 0.0 0.00 0.00 0.00 91 1015.2
20260905160046 58 256 4.0 0.0 0.00 0.00 0.00 91 1015.1
20260905154533 58 331 2.0 0.0 0.00 0.00 0.00 91 1015.1
20260905153039 57 36 1.0 0.0 0.00 0.00 0.00 91 1015.0
20260905151528 57 92 0.0 0.0 0.00 0.00 0.00 91 1015.0
20260905150023 57 58 1.0 0.0 0.00 0.00 0.00 91 1014.9
20260905144525 57 70 2.0 0.0 0.00 0.00 0.00 91 1014.9
20260905143025 57 146 0.0 0.0 0.00 0.00 0.00 91 1014.8
20260905141518 57 223 3.0 0.0 0.00 0.00 0.00 91 1014.7
20260905140013 57 238 5.0 0.0 0.00 0.00 0.00 91 1014.7
20260905134554 57 243 3.0 0.0 0.00 0.00 0.00 91 1014.7
20260905133053 57 246 3.0 0.0 0.00 0.00 0.00 91 1014.7
20260905131545 57 207 5.0 0.0 0.00 0.00 0.00 91 1014.6
20260905130044 57 250 2.0 0.0 0.00 0.00 0.00 90 1014.7
20260905124541 56 217 0.0 0.0 0.00 0.00 0.00 90 1014.7
20260905123039 57 239 0.0 0.0 0.00 0.00 0.00 90 1014.6
20260905121538 57 239 2.0 0.0 0.00 0.00 0.00 91 1014.5
20260905120038 57 195 0.0 0.0 0.00 0.00 0.00 90 1014.5
20260905114540 57 192 2.0 0.0 0.00 0.00 0.00 90 1014.4
20260905113035 57 195 3.0 0.0 0.00 0.00 0.00 90 1014.4
20260905111524 57 214 2.0 0.0 0.00 0.00 0.00 90 1014.4
20260905110023 57 204 3.0 0.0 0.00 0.00 0.00 90 1014.4
20260905104532 57 208 2.0 0.0 0.00 0.00 0.00 90 1014.5
20260905103023 57 206 3.0 0.0 0.00 0.00 0.00 90 1014.3
20260905101522 57 217 5.0 0.0 0.00 0.00 0.00 90 1014.4
20260905100021 57 229 3.0 0.0 0.00 0.00 0.00 90 1014.4